FW4267 Weather Reports


Display with metric or nautical units.
time (UTC)temp
F
wind
direction
speed
MPH
gust
MPH
rain 1hr
in
rain 24hr
in
rain mn
in
humidity
%
barometer
mb
20260901091556 75 106 1.0 5.0 0.00 0.00 0.00 61 1021.0
20260901091054 75 89 2.0 3.0 0.00 0.00 0.00 63 1021.0
20260901090553 74 102 2.0 3.0 0.00 0.00 0.00 63 1021.0
20260901090419 74 113 1.0 3.0 0.00 0.00 0.00 65 1020.9
20260901085555 73 86 2.0 3.0 0.00 0.00 0.00 66 1021.0
20260901085055 74 87 2.0 3.0 0.00 0.00 0.00 64 1021.0
20260901084556 73 83 1.0 3.0 0.00 0.00 0.00 67 1020.9
20260901084054 72 182 1.0 3.0 0.00 0.00 0.00 67 1021.0
20260901083552 72 79 1.0 3.0 0.00 0.00 0.00 69 1020.9
20260901083052 71 92 2.0 4.0 0.00 0.00 0.00 71 1020.9
20260901082553 71 83 2.0 4.0 0.00 0.00 0.00 69 1020.8
20260901082405 71 71 1.0 4.0 0.00 0.00 0.00 69 1020.9
20260901081553 71 117 2.0 4.0 0.00 0.00 0.00 69 1020.8
20260901081054 70 100 1.0 6.0 0.00 0.00 0.00 70 1020.9
20260901080607 70 85 2.0 6.0 0.00 0.00 0.00 71 1020.8
20260901080105 71 69 1.0 3.0 0.00 0.00 0.00 73 1020.9
20260901075553 70 89 1.0 4.0 0.00 0.00 0.00 73 1020.9
20260901075054 70 104 1.0 4.0 0.00 0.00 0.00 75 1020.9
20260901074551 69 83 1.0 4.0 0.00 0.00 0.00 76 1020.9
20260901074051 69 83 2.0 2.0 0.00 0.00 0.00 76 1020.9
20260901073551 69 51 1.0 3.0 0.00 0.00 0.00 78 1020.9
20260901073053 68 83 1.0 3.0 0.00 0.00 0.00 78 1021.0
20260901072901 67 103 1.0 3.0 0.00 0.00 0.00 80 1021.0
20260901072105 67 92 1.0 3.0 0.00 0.00 0.00 80 1021.0
20260901071551 67 93 1.0 2.0 0.00 0.00 0.00 81 1020.9
20260901071053 66 90 0.0 3.0 0.00 0.00 0.00 82 1020.9
20260901070551 66 92 1.0 3.0 0.00 0.00 0.00 81 1021.0
20260901070104 67 63 1.0 2.0 0.00 0.00 0.00 81 1020.9
20260901065550 66 71 0.0 1.0 0.00 0.00 0.00 81 1020.9
20260901065050 66 71 0.0 1.0 0.00 0.00 0.00 81 1021.0
20260901064551 65 296 0.0 0.0 0.00 0.00 0.00 83 1020.9
20260901064050 64 296 0.0 0.0 0.00 0.00 0.00 85 1021.0
20260901063552 63 295 0.0 0.0 0.00 0.00 0.00 85 1021.1
20260901063356 62 295 0.0 0.0 0.00 0.00 0.00 89 1021.1
20260901062552 61 295 0.0 0.0 0.00 0.00 0.00 92 1021.0
20260901062050 60 295 0.0 0.0 0.00 0.00 0.00 93 1021.0
20260901061551 59 295 0.0 0.0 0.00 0.00 0.00 92 1021.0
20260901061050 58 295 0.0 0.0 0.00 0.00 0.00 93 1021.0
20260901060552 58 295 0.0 0.0 0.00 0.00 0.00 93 1020.9
20260901060106 58 295 0.0 0.0 0.00 0.00 0.00 93 1020.9
20260901055549 57 295 0.0 0.0 0.00 0.00 0.00 93 1020.9
20260901055050 57 295 0.0 0.0 0.00 0.00 0.00 93 1020.8
20260901054551 57 295 0.0 0.0 0.00 0.00 0.00 93 1020.7
20260901054051 57 295 0.0 0.0 0.00 0.00 0.00 92 1020.7
20260901053549 57 295 0.0 0.0 0.00 0.00 0.00 92 1020.7
20260901053359 57 295 0.0 0.0 0.00 0.00 0.00 92 1020.7
20260901052551 57 295 0.0 0.0 0.00 0.00 0.00 92 1020.7
20260901052049 57 295 0.0 0.0 0.00 0.00 0.00 92 1020.6
20260901051550 57 295 0.0 0.0 0.00 0.00 0.00 92 1020.5
20260901051048 57 295 0.0 0.0 0.00 0.00 0.00 92 1020.7
20260901050550 57 295 0.0 0.0 0.00 0.00 0.00 92 1020.5
20260901045549 57 295 0.0 0.0 0.00 0.00 0.00 91 1020.6
20260901045404 57 295 0.0 0.0 0.00 0.00 0.00 91 1020.6
20260901044856 57 295 0.0 0.0 0.00 0.00 0.00 91 1020.6
20260901044049 58 295 0.0 0.0 0.00 0.00 0.00 91 1020.5
20260901043856 58 295 0.0 0.0 0.00 0.00 0.00 91 1020.5
20260901043050 58 295 0.0 0.0 0.00 0.00 0.00 91 1020.6
20260901042548 58 295 0.0 0.0 0.00 0.00 0.00 91 1020.6
20260901042049 58 295 0.0 0.0 0.00 0.00 0.00 91 1020.6
20260901041547 58 295 0.0 0.0 0.00 0.00 0.00 90 1020.7
20260901041048 58 295 0.0 0.0 0.00 0.00 0.00 91 1020.7
20260901040546 58 295 0.0 0.0 0.00 0.00 0.00 90 1020.6
20260901040100 58 295 0.0 0.0 0.00 0.00 0.00 90 1020.6
20260901035856 58 295 0.0 0.0 0.00 0.00 0.00 91 1020.7
20260901035046 58 295 0.0 0.0 0.00 0.00 0.00 90 1020.8
20260901034546 58 295 0.0 0.0 0.00 0.00 0.00 90 1020.7
20260901034214 58 295 0.0 0.0 0.00 0.00 0.00 90 1020.7
20260901034145 58 295 0.0 0.0 0.00 0.00 0.00 90 1020.7
20260901033354 58 295 0.0 0.0 0.00 0.00 0.00 90 1020.8
20260901032545 59 295 0.0 0.0 0.00 0.00 0.00 90 1020.8
20260901032046 59 295 0.0 0.0 0.00 0.00 0.00 89 1020.8
20260901031545 59 295 0.0 0.0 0.00 0.00 0.00 89 1020.9
20260901031046 59 295 0.0 0.0 0.00 0.00 0.00 89 1021.0
20260901030855 59 295 0.0 0.0 0.00 0.00 0.00 89 1021.0
20260901030059 59 295 0.0 0.0 0.00 0.00 0.00 90 1021.1
20260901025854 59 295 0.0 0.0 0.00 0.00 0.00 89 1021.1
20260901025047 59 295 0.0 0.0 0.00 0.00 0.00 89 1021.0
20260901024545 59 295 0.0 0.0 0.00 0.00 0.00 89 1021.0
20260901024046 59 295 0.0 0.0 0.00 0.00 0.00 89 1021.0
20260901023545 60 295 0.0 0.0 0.00 0.00 0.00 88 1021.0
20260901023046 60 295 0.0 0.0 0.00 0.00 0.00 88 1021.1
20260901022548 60 295 0.0 0.0 0.00 0.00 0.00 89 1021.2
20260901022044 60 295 0.0 0.0 0.00 0.00 0.00 88 1021.2
20260901021548 60 295 0.0 0.0 0.00 0.00 0.00 88 1021.2
20260901021044 60 295 0.0 0.0 0.00 0.00 0.00 87 1021.2
20260901020853 60 295 0.0 0.0 0.00 0.00 0.00 87 1021.2
20260901020046 61 295 0.0 0.0 0.00 0.00 0.00 87 1021.1
20260901015544 61 295 0.0 0.0 0.00 0.00 0.00 86 1021.1
20260901015047 61 295 0.0 0.0 0.00 0.00 0.00 86 1021.2
20260901014543 61 295 0.0 0.0 0.00 0.00 0.00 86 1021.3
20260901014045 61 295 0.0 0.0 0.00 0.00 0.00 87 1021.2
20260901013543 61 295 0.0 0.0 0.00 0.00 0.00 86 1021.2
20260901013348 61 295 0.0 0.0 0.00 0.00 0.00 86 1021.2
20260901012545 61 295 0.0 1.0 0.00 0.00 0.00 86 1021.2
20260901012044 61 295 0.0 1.0 0.00 0.00 0.00 86 1021.2
20260901011542 61 295 0.0 1.0 0.00 0.00 0.00 87 1021.2
20260901011045 61 295 0.0 1.0 0.00 0.00 0.00 87 1021.4
20260901010544 61 295 0.0 1.0 0.00 0.00 0.00 88 1021.4
20260901010357 61 295 0.0 1.0 0.00 0.00 0.00 87 1021.4
20260901005544 61 295 0.0 1.0 0.00 0.00 0.00 88 1021.5
20260901005042 61 295 0.0 1.0 0.00 0.00 0.00 88 1021.5
20260901004542 61 295 0.0 1.0 0.00 0.00 0.00 88 1021.6
20260901004044 61 295 0.0 1.0 0.00 0.00 0.00 88 1021.6
20260901003852 61 295 0.0 1.0 0.00 0.00 0.00 88 1021.7
20260901003041 61 295 0.0 0.0 0.00 0.00 0.00 87 1021.7
20260901002541 61 295 0.0 0.0 0.00 0.00 0.00 87 1021.7
20260901002042 61 295 0.0 1.0 0.00 0.00 0.00 87 1021.7
20260901001542 61 295 0.0 1.0 0.00 0.00 0.00 87 1021.7
20260901001043 61 295 0.0 0.0 0.00 0.00 0.00 87 1021.7
20260901000542 62 295 0.0 1.0 0.00 0.00 0.00 86 1021.8
20260901000044 62 295 0.0 1.0 0.00 0.00 0.00 86 1021.9
20260831235543 62 295 0.0 1.0 0.00 0.00 0.00 86 1021.9
20260831235042 62 295 0.0 1.0 0.00 0.00 0.00 87 1022.0
20260831234541 62 295 0.0 1.0 0.00 0.00 0.00 86 1021.9
20260831234040 62 295 0.0 1.0 0.00 0.00 0.00 87 1021.9
20260831233541 62 306 0.0 1.0 0.00 0.00 0.00 86 1021.9
20260831233040 62 306 0.0 0.0 0.00 0.00 0.00 85 1022.0
20260831232545 62 306 0.0 0.0 0.00 0.00 0.00 85 1022.0
20260831232040 62 306 0.0 0.0 0.00 0.00 0.00 85 1022.0
20260831231541 63 306 0.0 0.0 0.00 0.00 0.00 85 1022.1
20260831231042 63 306 0.0 0.0 0.00 0.00 0.00 85 1022.2
20260831230541 63 306 0.0 0.0 0.00 0.00 0.00 85 1022.1
20260831230039 63 306 0.0 1.0 0.00 0.00 0.00 85 1022.2
20260831225540 63 306 0.0 1.0 0.00 0.00 0.00 85 1022.1
20260831225040 63 307 0.0 0.0 0.00 0.00 0.00 85 1022.1
20260831224850 63 307 0.0 0.0 0.00 0.00 0.00 85 1022.2
20260831224041 63 307 0.0 0.0 0.00 0.00 0.00 85 1022.2
20260831223539 63 307 0.0 0.0 0.00 0.00 0.00 84 1022.1
20260831223041 63 307 0.0 0.0 0.00 0.00 0.00 83 1022.2
20260831222539 63 307 0.0 0.0 0.00 0.00 0.00 83 1022.2
20260831222039 64 307 0.0 0.0 0.00 0.00 0.00 83 1022.2
20260831221540 64 307 0.0 0.0 0.00 0.00 0.00 83 1022.2
20260831221038 64 307 0.0 0.0 0.00 0.00 0.00 83 1022.2
20260831220539 64 307 0.0 0.0 0.00 0.00 0.00 83 1022.1
20260831220352 64 307 0.0 0.0 0.00 0.00 0.00 83 1022.2
20260831215539 64 307 0.0 0.0 0.00 0.00 0.00 83 1022.2
20260831215038 64 307 0.0 0.0 0.00 0.00 0.00 83 1022.2
20260831214541 64 307 0.0 0.0 0.00 0.00 0.00 82 1022.2
20260831214038 64 307 0.0 0.0 0.00 0.00 0.00 82 1022.2
20260831213842 64 307 0.0 0.0 0.00 0.00 0.00 82 1022.1
20260831213353 64 307 0.0 0.0 0.00 0.00 0.00 81 1022.1
20260831212540 64 307 0.0 0.0 0.00 0.00 0.00 81 1022.2
20260831212037 65 307 0.0 0.0 0.00 0.00 0.00 81 1022.1
20260831211539 65 307 0.0 0.0 0.00 0.00 0.00 81 1022.1
20260831211039 65 307 0.0 0.0 0.00 0.00 0.00 80 1022.1
20260831210540 65 307 0.0 0.0 0.00 0.00 0.00 80 1022.0
20260831210037 65 307 0.0 0.0 0.00 0.00 0.00 80 1022.0
20260831205537 65 307 0.0 0.0 0.00 0.00 0.00 79 1022.1
20260831205036 65 307 0.0 0.0 0.00 0.00 0.00 79 1022.0
20260831204536 65 307 0.0 0.0 0.00 0.00 0.00 79 1021.9
20260831204038 65 307 0.0 0.0 0.00 0.00 0.00 78 1021.9
20260831203537 66 307 0.0 0.0 0.00 0.00 0.00 78 1021.8
20260831203036 66 307 0.0 0.0 0.00 0.00 0.00 78 1021.8
20260831202538 66 307 0.0 0.0 0.00 0.00 0.00 77 1021.8
20260831202037 66 307 0.0 0.0 0.00 0.00 0.00 77 1021.8
20260831201536 66 307 0.0 0.0 0.00 0.00 0.00 77 1021.8
20260831201039 66 307 0.0 0.0 0.00 0.00 0.00 76 1021.8
20260831200548 67 307 0.0 0.0 0.00 0.00 0.00 76 1021.7
20260831200050 67 307 0.0 0.0 0.00 0.00 0.00 76 1021.6
20260831195536 67 307 0.0 0.0 0.00 0.00 0.00 75 1021.6
20260831195036 67 307 0.0 0.0 0.00 0.00 0.00 75 1021.5
20260831194537 67 307 0.0 0.0 0.00 0.00 0.00 75 1021.5
20260831194347 67 307 0.0 0.0 0.00 0.00 0.00 74 1021.5
20260831193846 68 307 0.0 0.0 0.00 0.00 0.00 74 1021.4
20260831193037 68 307 0.0 0.0 0.00 0.00 0.00 73 1021.3
20260831192536 68 307 0.0 0.0 0.00 0.00 0.00 73 1021.2
20260831192036 68 307 0.0 0.0 0.00 0.00 0.00 72 1021.2
20260831191536 68 307 0.0 0.0 0.00 0.00 0.00 72 1021.1
20260831191036 69 307 0.0 0.0 0.00 0.00 0.00 71 1021.1
20260831190536 69 307 0.0 0.0 0.00 0.00 0.00 70 1021.0
20260831190034 69 307 0.0 0.0 0.00 0.00 0.00 69 1021.0
20260831185536 69 307 0.0 0.0 0.00 0.00 0.00 68 1021.0
20260831185034 70 307 0.0 0.0 0.00 0.00 0.00 68 1021.0
20260831184534 70 307 0.0 0.0 0.00 0.00 0.00 67 1020.9
20260831184035 70 307 0.0 0.0 0.00 0.00 0.00 67 1020.8
20260831183534 71 307 0.0 0.0 0.00 0.00 0.00 66 1020.8
20260831183035 71 307 0.0 0.0 0.00 0.00 0.00 66 1020.8
20260831182535 72 307 0.0 1.0 0.00 0.00 0.00 66 1020.9
20260831182346 72 307 0.0 1.0 0.00 0.00 0.00 65 1020.9
20260831181533 73 354 0.0 0.0 0.00 0.00 0.00 64 1020.8
20260831181036 73 354 0.0 1.0 0.00 0.00 0.00 64 1020.8
20260831180536 74 354 0.0 1.0 0.00 0.00 0.00 63 1020.9
20260831180034 74 354 0.0 1.0 0.00 0.00 0.00 63 1020.9
20260831175537 74 354 0.0 1.0 0.00 0.00 0.00 62 1020.9
20260831175032 75 210 0.0 1.0 0.00 0.00 0.00 61 1020.8
20260831174709 75 214 0.0 1.0 0.00 0.00 0.00 61 1020.8
20260831174633 75 214 0.0 1.0 0.00 0.00 0.00 63 1020.8
20260831173843 75 214 0.0 1.0 0.00 0.00 0.00 60 1020.9
20260831173347 75 148 0.0 1.0 0.00 0.00 0.00 60 1020.8
20260831172533 76 10 0.0 1.0 0.00 0.00 0.00 60 1020.8
20260831172033 76 0 0.0 0.0 0.00 0.00 0.00 61 1020.8
20260831171532 76 0 0.0 1.0 0.00 0.00 0.00 60 1020.8
20260831171343 76 0 0.0 1.0 0.00 0.00 0.00 60 1020.9
20260831170532 76 69 0.0 1.0 0.00 0.00 0.00 60 1020.9
20260831170344 76 87 0.0 1.0 0.00 0.00 0.00 60 1020.9
20260831165534 76 87 0.0 1.0 0.00 0.00 0.00 59 1020.9
20260831165033 76 69 0.0 1.0 0.00 0.00 0.00 60 1021.0
20260831164531 76 69 0.0 2.0 0.00 0.00 0.00 60 1021.0
20260831164031 76 69 0.0 3.0 0.00 0.00 0.00 61 1021.0
20260831163531 76 71 0.0 3.0 0.00 0.00 0.00 60 1021.0
20260831163031 76 66 0.0 6.0 0.00 0.00 0.00 60 1021.0
20260831162531 76 68 0.0 6.0 0.00 0.00 0.00 59 1021.1
20260831162031 76 100 2.0 5.0 0.00 0.00 0.00 58 1021.1
20260831161842 76 116 2.0 5.0 0.00 0.00 0.00 57 1021.1
20260831161030 77 52 1.0 3.0 0.00 0.00 0.00 57 1021.1
20260831160531 77 204 0.0 2.0 0.00 0.00 0.00 58 1021.2
20260831160030 77 106 0.0 2.0 0.00 0.00 0.00 58 1021.1
20260831155838 77 65 0.0 2.0 0.00 0.00 0.00 57 1021.2
20260831155033 78 99 0.0 0.0 0.00 0.00 0.00 57 1021.2
20260831154528 78 100 0.0 0.0 0.00 0.00 0.00 55 1021.2
20260831154031 78 268 0.0 0.0 0.00 0.00 0.00 54 1021.3
20260831153530 78 268 0.0 2.0 0.00 0.00 0.00 51 1021.3
20260831153032 78 269 0.0 2.0 0.00 0.00 0.00 53 1021.3
20260831152529 78 269 0.0 2.0 0.00 0.00 0.00 53 1021.3
20260831152338 78 61 0.0 2.0 0.00 0.00 0.00 54 1021.4
20260831151530 78 292 0.0 5.0 0.00 0.00 0.00 53 1021.4
20260831151341 78 283 0.0 5.0 0.00 0.00 0.00 50 1021.4
20260831150532 78 83 0.0 2.0 0.00 0.00 0.00 51 1021.4
20260831150029 78 234 0.0 3.0 0.00 0.00 0.00 51 1021.5
20260831145530 78 87 0.0 3.0 0.00 0.00 0.00 52 1021.5
20260831145343 78 289 1.0 3.0 0.00 0.00 0.00 51 1021.5
20260831144530 78 28 1.0 2.0 0.00 0.00 0.00 52 1021.6
20260831144029 79 0 0.0 3.0 0.00 0.00 0.00 52 1021.6
20260831143527 78 228 0.0 3.0 0.00 0.00 0.00 55 1021.6
20260831143157 77 276 0.0 2.0 0.00 0.00 0.00 53 1021.6
20260831143124 77 86 0.0 3.0 0.00 0.00 0.00 54 1021.5
20260831142029 77 319 1.0 2.0 0.00 0.00 0.00 54 1021.7
20260831141528 77 312 0.0 3.0 0.00 0.00 0.00 55 1021.7
20260831141032 76 321 0.0 3.0 0.00 0.00 0.00 56 1021.7
20260831140838 76 104 1.0 2.0 0.00 0.00 0.00 57 1021.8
20260831140032 76 307 1.0 2.0 0.00 0.00 0.00 56 1021.8
20260831135526 76 312 0.0 2.0 0.00 0.00 0.00 56 1021.8
20260831135026 77 303 0.0 5.0 0.00 0.00 0.00 56 1021.8
20260831134527 77 235 0.0 5.0 0.00 0.00 0.00 55 1021.7
20260831134335 78 130 0.0 2.0 0.00 0.00 0.00 56 1021.7
20260831133531 77 87 0.0 2.0 0.00 0.00 0.00 57 1021.8
20260831133029 77 334 0.0 2.0 0.00 0.00 0.00 58 1021.8
20260831132527 76 321 0.0 2.0 0.00 0.00 0.00 58 1021.9
20260831132029 76 272 0.0 3.0 0.00 0.00 0.00 58 1022.0
20260831131525 76 282 2.0 3.0 0.00 0.00 0.00 59 1022.0
20260831131332 75 257 0.0 4.0 0.00 0.00 0.00 59 1022.0
20260831130525 76 295 1.0 5.0 0.00 0.00 0.00 58 1022.0
20260831130028 76 298 2.0 5.0 0.00 0.00 0.00 59 1022.1
20260831125525 75 296 0.0 4.0 0.00 0.00 0.00 60 1022.0
20260831125027 75 278 1.0 6.0 0.00 0.00 0.00 61 1022.0
20260831124836 75 310 2.0 6.0 0.00 0.00 0.00 59 1022.1
20260831124026 75 314 0.0 4.0 0.00 0.00 0.00 62 1022.1
20260831123525 75 303 0.0 3.0 0.00 0.00 0.00 62 1022.0
20260831123025 75 39 1.0 3.0 0.00 0.00 0.00 60 1022.1
20260831122538 75 285 0.0 4.0 0.00 0.00 0.00 62 1022.0
20260831122024 75 303 1.0 4.0 0.00 0.00 0.00 61 1022.1
20260831121526 75 321 1.0 5.0 0.00 0.00 0.00 61 1022.1
20260831121028 75 295 2.0 6.0 0.00 0.00 0.00 60 1022.1
20260831120832 74 298 3.0 6.0 0.00 0.00 0.00 60 1022.1
20260831120025 74 269 0.0 4.0 0.00 0.00 0.00 62 1022.1
20260831115527 74 350 1.0 4.0 0.00 0.00 0.00 63 1022.1
20260831115024 74 288 1.0 4.0 0.00 0.00 0.00 63 1022.1
20260831114524 74 281 1.0 2.0 0.00 0.00 0.00 62 1022.1
20260831114036 74 348 0.0 3.0 0.00 0.00 0.00 63 1022.2
20260831113525 73 298 1.0 3.0 0.00 0.00 0.00 64 1022.1
20260831113024 73 305 2.0 3.0 0.00 0.00 0.00 64 1022.2
20260831112527 73 316 1.0 3.0 0.00 0.00 0.00 65 1022.2
20260831112335 73 276 1.0 3.0 0.00 0.00 0.00 66 1022.2
20260831111525 73 268 0.0 4.0 0.00 0.00 0.00 66 1022.2
20260831111025 73 302 1.0 4.0 0.00 0.00 0.00 67 1022.2
20260831110522 72 306 0.0 4.0 0.00 0.00 0.00 67 1022.2
20260831110023 73 321 1.0 4.0 0.00 0.00 0.00 67 1022.2
20260831105524 73 288 0.0 4.0 0.00 0.00 0.00 68 1022.2
20260831105153 72 309 0.0 5.0 0.00 0.00 0.00 67 1022.4
20260831105120 72 299 0.0 4.0 0.00 0.00 0.00 67 1022.3
20260831104023 72 305 2.0 5.0 0.00 0.00 0.00 67 1022.3
20260831103524 72 293 0.0 4.0 0.00 0.00 0.00 68 1022.4
20260831103025 72 302 1.0 4.0 0.00 0.00 0.00 68 1022.3
20260831102522 72 281 0.0 4.0 0.00 0.00 0.00 68 1022.3
20260831102022 72 326 0.0 5.0 0.00 0.00 0.00 69 1022.3
20260831101842 72 275 1.0 5.0 0.00 0.00 0.00 70 1022.3
20260831101023 72 278 0.0 5.0 0.00 0.00 0.00 71 1022.3
20260831100524 71 282 1.0 5.0 0.00 0.00 0.00 71 1022.3
20260831100022 71 295 0.0 4.0 0.00 0.00 0.00 71 1022.3
20260831095521 71 292 2.0 4.0 0.00 0.00 0.00 71 1022.3
20260831095024 71 316 2.0 4.0 0.00 0.00 0.00 71 1022.2
20260831094521 71 72 0.0 2.0 0.00 0.00 0.00 72 1022.2
20260831094024 71 310 0.0 2.0 0.00 0.00 0.00 72 1022.3
20260831093521 71 310 0.0 3.0 0.00 0.00 0.00 73 1022.3
20260831093021 71 309 0.0 4.0 0.00 0.00 0.00 72 1022.3
20260831092833 71 275 2.0 4.0 0.00 0.00 0.00 73 1022.3
20260831092020 71 279 0.0 3.0 0.00 0.00 0.00 74 1022.3